Regional Weather Roundup
Issued by NWS

Home | Current Version | Previous Version | Graphics & Text | Print | Product List | Glossary On
Versions: 1 2 3 4 5 6 7 8 9 10 11 12 13 14 15 16 17 18 19 20 21 22 23 24 25 26 27 28 29 30 31 32 33 34 35 36 37 38 39 40 41 42 43 44 45 46 47 48 49 50
000
ASUS43 KFSD 300810
RWRSD

WEATHER ROUNDUP FOR SOUTH DAKOTA
NATIONAL WEATHER SERVICE SIOUX FALLS SD
300 AM CDT MON MAR 30 2015

NOTE: "FAIR" INDICATES FEW OR NO CLOUDS BELOW 12,000 FEET WITH NO
SIGNIFICANT WEATHER AND/OR OBSTRUCTIONS TO VISIBILITY.


SDZ001>005-009-010-012>017-300900-
NORTHWEST AND NORTH CENTRAL SOUTH DAKOTA

CITY           SKY/WX    TMP DP  RH WIND       PRES   REMARKS
BUFFALO          N/A     42  26  53 W8        29.91F
FAITH            N/A     41  25  53 SW9       29.97F
MOBRIDGE       CLOUDY    40  30  67 SE7       29.92F
$$

SDZ012>016-024>037-041>051-057-063-072>074-300900-
SOUTHWEST AND SOUTH CENTRAL SOUTH DAKOTA

CITY           SKY/WX    TMP DP  RH WIND       PRES   REMARKS
RAPID CTY ARPT PTCLDY    36  26  67 CALM      30.00F
PIERRE         PTCLDY    42  29  59 SW7       29.97F
CUSTER         CLEAR     37  20  50 W7        30.06F
ELLSWORTH AFB  PTCLDY    43  26  51 SW6       29.99F
PHILIP         CLEAR     36  24  62 NW6       29.99F
PINE RIDGE     CLEAR     34  25  69 NE5       30.04F WCI  30
SPEARFISH      FAIR      46  21  36 W9        30.02F
WINNER         FAIR      47  21  35 SW16      30.02F
$$

SDZ004>011-016>023-039-040-300900-
NORTHEAST SOUTH DAKOTA

CITY           SKY/WX    TMP DP  RH WIND       PRES   REMARKS
ABERDEEN       CLOUDY    34  26  72 SW6       29.97S WCI  29
WATERTOWN      MOCLDY    30  24  78 S7        29.98F WCI  23
SISSETON         N/A     41  27  57 W8        29.94S
$$

SDZ017-020-022-023-036>040-048>070-300900-
SOUTHEAST SOUTH DAKOTA

CITY           SKY/WX    TMP DP  RH WIND       PRES   REMARKS
SIOUX FALLS    MOCLDY    35  21  56 CALM      30.03F
HURON          MOCLDY    39  24  55 SW7       29.99F
CHAMBERLAIN    MOCLDY    38  24  55 SW5       30.01F
MITCHELL       MOCLDY    42  25  50 S5        30.02F
YANKTON        CLOUDY    41  23  48 S6        30.06F
$$

ABBREVIATIONS USED IN REMARKS
   TC - TEMPERATURE IN CELSIUS
  WCI - WIND CHILL INDEX
   HX - HEAT INDEX
  VSB - VISIBILITY




USA.gov is the U.S. government's official web portal to all federal, state and local government web resources and services.